PUA2603 SEQM-SUMU

Flight info

Callsign PUA2603
Flight time 5h 23m
Altitude 37000
Route VURIS3 VURIS DCT OAS DCT OSUBU DCT UMSOK UM665 IQT UM776 POSKA/N0467F390 UM776 RAXUN DCT PAZ UW6 TAR DCT SOVLI DCT RTA DCT DRACA
Aircraft A339/H-SADE1E2E3GHIJ3J5M1P2RWXY/LB2D1

Departure

Time 2026-04-29 16:41
Airport Mariscal Sucre International Airport (SEQM)

Arrival

Time 2026-04-29 22:04
Airport Carrasco General Cesáreo L. Berisso International Airport (SUMU)
Time Latitude Longitude Altitude Speed Heading
2026-04-29 16:11 -0.12314 -78.35930 7885 ft 0 kts 267°
2026-04-29 16:28 -0.12314 -78.35931 7886 ft 0 kts 267°
2026-04-29 16:29 -0.12313 -78.35923 7887 ft 0 kts 268°
2026-04-29 16:29 -0.12312 -78.35910 7888 ft 2 kts 259°
2026-04-29 16:29 -0.12308 -78.35895 7889 ft 2 kts 246°
2026-04-29 16:29 -0.12301 -78.35883 7890 ft 2 kts 236°
2026-04-29 16:30 -0.12292 -78.35871 7890 ft 2 kts 225°
2026-04-29 16:30 -0.12280 -78.35861 7890 ft 2 kts 213°
2026-04-29 16:30 -0.12268 -78.35854 7890 ft 2 kts 202°
2026-04-29 16:30 -0.12253 -78.35850 7889 ft 2 kts 191°
2026-04-29 16:31 -0.12238 -78.35848 7889 ft 1 kts 180°
2026-04-29 16:31 -0.12234 -78.35848 7888 ft 0 kts 177°
2026-04-29 16:32 -0.12228 -78.35848 7888 ft 0 kts 177°
2026-04-29 16:33 -0.12314 -78.35845 7893 ft 9 kts 178°
2026-04-29 16:33 -0.12383 -78.35843 7897 ft 10 kts 176°
2026-04-29 16:33 -0.12458 -78.35840 7902 ft 11 kts 177°
2026-04-29 16:34 -0.12539 -78.35836 7906 ft 12 kts 178°
2026-04-29 16:34 -0.12632 -78.35834 7910 ft 14 kts 177°
2026-04-29 16:34 -0.12691 -78.35783 7917 ft 11 kts 99°
2026-04-29 16:34 -0.12690 -78.35709 7922 ft 10 kts 88°
2026-04-29 16:35 -0.12691 -78.35638 7928 ft 8 kts 105°
2026-04-29 16:35 -0.12724 -78.35609 7932 ft 6 kts 156°
2026-04-29 16:35 -0.12782 -78.35599 7936 ft 11 kts 173°
2026-04-29 16:35 -0.12882 -78.35593 7943 ft 15 kts 177°
2026-04-29 16:36 -0.12989 -78.35588 7949 ft 15 kts 177°
2026-04-29 16:36 -0.13107 -78.35583 7954 ft 18 kts 176°
2026-04-29 16:36 -0.13240 -78.35578 7960 ft 20 kts 178°
2026-04-29 16:36 -0.13390 -78.35571 7967 ft 22 kts 177°
2026-04-29 16:37 -0.13552 -78.35565 7973 ft 24 kts 177°
2026-04-29 16:37 -0.13725 -78.35558 7983 ft 25 kts 177°
2026-04-29 16:37 -0.13886 -78.35549 7992 ft 21 kts 177°
2026-04-29 16:37 -0.13978 -78.35546 7996 ft 18 kts 177°
2026-04-29 16:38 -0.14134 -78.35541 8003 ft 15 kts 178°
2026-04-29 16:38 -0.14226 -78.35520 8008 ft 10 kts 140°
2026-04-29 16:38 -0.14239 -78.35503 8011 ft 0 kts 120°
2026-04-29 16:39 -0.14235 -78.35512 8010 ft 2 kts 120°
2026-04-29 16:39 -0.14232 -78.35516 8009 ft 1 kts 120°
2026-04-29 16:39 -0.14245 -78.35493 8013 ft 6 kts 114°
2026-04-29 16:39 -0.14252 -78.35429 8019 ft 12 kts 85°
2026-04-29 16:40 -0.14175 -78.35368 8022 ft 21 kts 358°
2026-04-29 16:40 -0.13829 -78.35384 8006 ft 79 kts 356°
2026-04-29 16:40 -0.13082 -78.35418 7967 ft 134 kts
2026-04-29 16:40 -0.11980 -78.35459 7894 ft 180 kts 355°
2026-04-29 16:41 -0.10679 -78.35513 8188 ft 190 kts 356°
2026-04-29 16:41 -0.09385 -78.35584 8716 ft 187 kts 356°
2026-04-29 16:41 -0.08089 -78.35642 9251 ft 185 kts 357°
2026-04-29 16:41 -0.06809 -78.35696 9728 ft 186 kts 357°
2026-04-29 16:42 -0.05498 -78.35750 9949 ft 192 kts 357°
2026-04-29 16:42 -0.04143 -78.35807 10104 ft 200 kts 357°
2026-04-29 16:42 -0.02703 -78.35870 10273 ft 209 kts 358°
2026-04-29 16:42 -0.01220 -78.35933 10445 ft 218 kts 358°
2026-04-29 16:43 0.00338 -78.36001 10629 ft 228 kts 358°
2026-04-29 16:43 0.01950 -78.36070 10799 ft 239 kts 358°
2026-04-29 16:43 0.03598 -78.36327 10984 ft 251 kts 336°
2026-04-29 16:43 0.05011 -78.37370 11189 ft 262 kts 306°
2026-04-29 16:44 0.05742 -78.39065 11409 ft 275 kts 276°
2026-04-29 16:44 0.05499 -78.40957 11657 ft 283 kts 243°
2026-04-29 16:44 0.04278 -78.42480 12060 ft 286 kts 212°
2026-04-29 16:44 0.02465 -78.43154 12495 ft 284 kts 180°
2026-04-29 16:45 0.00579 -78.42797 12980 ft 278 kts 150°
2026-04-29 16:45 -0.01097 -78.41835 13446 ft 279 kts 147°
2026-04-29 16:45 -0.02756 -78.40846 13912 ft 281 kts 147°
2026-04-29 16:45 -0.04458 -78.39856 14380 ft 283 kts 148°
2026-04-29 16:46 -0.06172 -78.38879 14835 ft 285 kts 148°
2026-04-29 16:46 -0.07877 -78.37920 15283 ft 287 kts 148°
2026-04-29 16:46 -0.09641 -78.36935 15757 ft 289 kts 148°
2026-04-29 16:46 -0.11369 -78.35935 16231 ft 289 kts 143°
2026-04-29 16:47 -0.12948 -78.34728 16673 ft 289 kts 134°
2026-04-29 16:47 -0.14363 -78.33271 16928 ft 298 kts 129°
2026-04-29 16:47 -0.15768 -78.31657 17158 ft 310 kts 128°
2026-04-29 16:47 -0.17169 -78.30022 17377 ft 322 kts 128°
2026-04-29 16:48 -0.18671 -78.28279 17603 ft 335 kts 128°
2026-04-29 16:48 -0.20213 -78.26492 17833 ft 347 kts 128°
2026-04-29 16:48 -0.21809 -78.24647 18048 ft 358 kts 128°
2026-04-29 16:48 -0.23465 -78.22739 18275 ft 370 kts 128°
2026-04-29 16:49 -0.25173 -78.20776 18493 ft 381 kts 128°
2026-04-29 16:49 -0.26922 -78.18763 18790 ft 388 kts 128°
2026-04-29 16:49 -0.28673 -78.16753 19183 ft 390 kts 128°
2026-04-29 16:49 -0.30462 -78.14694 19627 ft 393 kts 129°
2026-04-29 16:50 -0.32262 -78.12624 20010 ft 396 kts 129°
2026-04-29 16:50 -0.34066 -78.10546 20413 ft 399 kts 129°
2026-04-29 16:50 -0.35978 -78.08562 20781 ft 404 kts 140°
2026-04-29 16:50 -0.38435 -78.07226 21106 ft 413 kts 160°
2026-04-29 16:51 -0.41271 -78.06741 21478 ft 419 kts 179°
2026-04-29 16:51 -0.44197 -78.07069 21886 ft 422 kts 187°
2026-04-29 16:51 -0.47079 -78.07527 22262 ft 425 kts 187°
2026-04-29 16:51 -0.49952 -78.07976 22576 ft 429 kts 187°
2026-04-29 16:52 -0.52945 -78.08430 22895 ft 433 kts 187°
2026-04-29 16:52 -0.55875 -78.08865 23240 ft 436 kts 187°
2026-04-29 16:52 -0.58886 -78.09307 23630 ft 437 kts 187°
2026-04-29 16:52 -0.61880 -78.09744 24020 ft 440 kts 187°
2026-04-29 16:53 -0.64877 -78.10180 24403 ft 442 kts 187°
2026-04-29 16:53 -0.67895 -78.10620 24765 ft 444 kts 187°
2026-04-29 16:53 -0.70932 -78.11062 25108 ft 447 kts 187°
2026-04-29 16:53 -0.73979 -78.11504 25457 ft 449 kts 187°
2026-04-29 16:54 -0.77095 -78.11956 25798 ft 451 kts 187°
2026-04-29 16:54 -0.80206 -78.12406 26143 ft 453 kts 187°
2026-04-29 16:54 -0.83325 -78.12859 26484 ft 455 kts 187°
2026-04-29 16:54 -0.86448 -78.13313 26814 ft 457 kts 187°
2026-04-29 16:55 -0.89611 -78.13772 27137 ft 459 kts 187°
2026-04-29 16:55 -0.92788 -78.14233 27439 ft 462 kts 187°
2026-04-29 16:55 -0.95978 -78.14697 27756 ft 464 kts 187°
2026-04-29 16:55 -0.99162 -78.15160 28058 ft 466 kts 187°
2026-04-29 16:56 -1.02354 -78.15623 28371 ft 467 kts 188°
2026-04-29 16:56 -1.05582 -78.16088 28693 ft 469 kts 186°
2026-04-29 16:56 -1.08837 -78.16144 28945 ft 470 kts 172°
2026-04-29 16:56 -1.11984 -78.15342 29210 ft 471 kts 157°
2026-04-29 16:57 -1.14829 -78.13771 29460 ft 472 kts 142°
2026-04-29 16:57 -1.17231 -78.11582 29709 ft 473 kts 134°
2026-04-29 16:57 -1.19531 -78.09219 29967 ft 476 kts 133°
2026-04-29 16:57 -1.21793 -78.06886 30195 ft 479 kts 133°
2026-04-29 16:58 -1.24107 -78.04509 30467 ft 481 kts 133°
2026-04-29 16:58 -1.26430 -78.02137 30861 ft 480 kts 133°
2026-04-29 16:58 -1.28734 -77.99795 31266 ft 479 kts 134°
2026-04-29 16:58 -1.31076 -77.97420 31628 ft 478 kts 134°
2026-04-29 16:59 -1.33407 -77.95060 31967 ft 479 kts 134°
2026-04-29 16:59 -1.35703 -77.92737 32332 ft 478 kts 134°
2026-04-29 16:59 -1.38064 -77.90350 32715 ft 477 kts 134°
2026-04-29 16:59 -1.40369 -77.88022 33096 ft 477 kts 134°
2026-04-29 17:00 -1.42672 -77.85693 33497 ft 476 kts 134°
2026-04-29 17:00 -1.44943 -77.83398 33903 ft 475 kts 134°
2026-04-29 17:00 -1.47233 -77.81084 34306 ft 474 kts 134°
2026-04-29 17:00 -1.49523 -77.78768 34694 ft 473 kts 134°
2026-04-29 17:01 -1.51823 -77.76443 35057 ft 472 kts 134°
2026-04-29 17:01 -1.54130 -77.74111 35396 ft 471 kts 134°
2026-04-29 17:01 -1.56427 -77.71788 35675 ft 472 kts 134°
2026-04-29 17:01 -1.58738 -77.69451 35897 ft 473 kts 134°
2026-04-29 17:02 -1.61028 -77.67137 36089 ft 475 kts 134°
2026-04-29 17:02 -1.63370 -77.64770 36293 ft 476 kts 134°
2026-04-29 17:02 -1.65662 -77.62452 36499 ft 478 kts 134°
2026-04-29 17:02 -1.67955 -77.60133 36713 ft 478 kts 134°
2026-04-29 17:03 -1.70302 -77.57761 36911 ft 480 kts 134°
2026-04-29 17:03 -1.72606 -77.55431 37001 ft 482 kts 134°
2026-04-29 17:03 -1.77223 -77.50762 37001 ft 483 kts 134°
2026-04-29 17:04 -1.81905 -77.46027 36993 ft 483 kts 134°
2026-04-29 17:04 -1.86534 -77.41346 36991 ft 483 kts 134°
2026-04-29 17:05 -1.91213 -77.36614 36985 ft 483 kts 134°
2026-04-29 17:05 -1.95922 -77.31852 36983 ft 483 kts 134°
2026-04-29 17:06 -2.00621 -77.27098 36973 ft 483 kts 134°
2026-04-29 17:06 -2.05320 -77.22344 36975 ft 483 kts 134°
2026-04-29 17:07 -2.10040 -77.17567 36970 ft 482 kts 134°
2026-04-29 17:07 -2.14733 -77.12819 36966 ft 483 kts 134°
2026-04-29 17:08 -2.19445 -77.08051 36956 ft 484 kts 134°
2026-04-29 17:08 -2.24139 -77.03301 36955 ft 484 kts 134°
2026-04-29 17:09 -2.28874 -76.98508 36955 ft 484 kts 134°
2026-04-29 17:09 -2.33538 -76.93787 36951 ft 484 kts 134°
2026-04-29 17:10 -2.38207 -76.89061 36946 ft 484 kts 134°
2026-04-29 17:10 -2.42921 -76.84286 36943 ft 484 kts 134°
2026-04-29 17:11 -2.47606 -76.79542 36941 ft 484 kts 134°
2026-04-29 17:11 -2.52276 -76.74813 36939 ft 484 kts 134°
2026-04-29 17:12 -2.56985 -76.70044 36938 ft 484 kts 134°
2026-04-29 17:12 -2.60898 -76.66080 36936 ft 484 kts 134°
2026-04-29 17:13 -2.66377 -76.60527 36931 ft 485 kts 134°
2026-04-29 17:13 -2.71069 -76.55768 36929 ft 484 kts 134°
2026-04-29 17:14 -2.75786 -76.50988 36927 ft 485 kts 134°
2026-04-29 17:14 -2.80635 -76.46466 36926 ft 485 kts 140°
2026-04-29 17:15 -2.85878 -76.42292 36925 ft 485 kts 141°
2026-04-29 17:15 -2.91178 -76.38135 36925 ft 484 kts 141°
2026-04-29 17:16 -2.96437 -76.33997 36925 ft 484 kts 141°
2026-04-29 17:16 -3.01657 -76.29881 36925 ft 484 kts 141°
2026-04-29 17:17 -3.06936 -76.25716 36926 ft 484 kts 141°
2026-04-29 17:17 -3.12208 -76.21555 36925 ft 484 kts 141°
2026-04-29 17:18 -3.17445 -76.17419 36925 ft 484 kts 141°
2026-04-29 17:18 -3.22706 -76.13266 36923 ft 484 kts 141°
2026-04-29 17:19 -3.27764 -76.08899 36918 ft 483 kts 133°
2026-04-29 17:19 -3.31833 -76.03665 36910 ft 481 kts 120°
2026-04-29 17:20 -3.34700 -75.97710 36904 ft 480 kts 108°
2026-04-29 17:20 -3.36451 -75.91362 36903 ft 478 kts 102°
2026-04-29 17:21 -3.37991 -75.84972 36901 ft 478 kts 102°
2026-04-29 17:21 -3.39571 -75.78545 36902 ft 478 kts 102°
2026-04-29 17:22 -3.41181 -75.72076 36902 ft 478 kts 102°
2026-04-29 17:22 -3.42787 -75.65643 36902 ft 478 kts 102°
2026-04-29 17:23 -3.44395 -75.59197 36900 ft 478 kts 102°
2026-04-29 17:23 -3.45635 -75.52721 36901 ft 477 kts 97°
2026-04-29 17:24 -3.46635 -75.46176 36899 ft 476 kts 97°
2026-04-29 17:24 -3.47629 -75.39643 36899 ft 477 kts 97°
2026-04-29 17:25 -3.48627 -75.33104 36899 ft 476 kts 97°
2026-04-29 17:25 -3.49630 -75.26547 36900 ft 476 kts 97°
2026-04-29 17:26 -3.50632 -75.20010 36900 ft 476 kts 97°
2026-04-29 17:26 -3.51630 -75.13494 36899 ft 476 kts 97°
2026-04-29 17:27 -3.52631 -75.06955 36900 ft 475 kts 97°
2026-04-29 17:27 -3.53623 -75.00476 36901 ft 475 kts 97°
2026-04-29 17:28 -3.54611 -74.94013 36898 ft 475 kts 97°
2026-04-29 17:28 -3.55598 -74.87549 36895 ft 474 kts 97°
2026-04-29 17:29 -3.56594 -74.81034 36888 ft 475 kts 97°
2026-04-29 17:29 -3.57418 -74.75642 36885 ft 475 kts 97°
2026-04-29 17:30 -3.58572 -74.68080 36883 ft 475 kts 97°
2026-04-29 17:30 -3.59558 -74.61616 36883 ft 475 kts 97°
2026-04-29 17:31 -3.60550 -74.55109 36882 ft 475 kts 97°
2026-04-29 17:31 -3.61524 -74.48717 36881 ft 475 kts 97°
2026-04-29 17:32 -3.62495 -74.42348 36880 ft 474 kts 97°
2026-04-29 17:32 -3.63467 -74.35965 36879 ft 474 kts 97°
2026-04-29 17:33 -3.64441 -74.29555 36877 ft 475 kts 97°
2026-04-29 17:33 -3.65421 -74.23125 36877 ft 474 kts 97°
2026-04-29 17:34 -3.66394 -74.16715 36877 ft 474 kts 97°
2026-04-29 17:34 -3.67374 -74.10274 36876 ft 474 kts 97°
2026-04-29 17:35 -3.68839 -74.00620 36875 ft 473 kts 97°
2026-04-29 17:36 -3.69817 -73.94179 36872 ft 473 kts 97°
2026-04-29 17:36 -3.70790 -73.87767 36870 ft 474 kts 97°
2026-04-29 17:37 -3.71766 -73.81324 36869 ft 474 kts 97°
2026-04-29 17:37 -3.72736 -73.74925 36868 ft 474 kts 97°
2026-04-29 17:38 -3.73703 -73.68540 36870 ft 474 kts 97°
2026-04-29 17:38 -3.74674 -73.62128 36871 ft 474 kts 97°
2026-04-29 17:39 -3.75642 -73.55734 36877 ft 474 kts 97°
2026-04-29 17:39 -3.76606 -73.49361 36879 ft 474 kts 97°
2026-04-29 17:40 -3.77587 -73.42973 36882 ft 475 kts 99°
2026-04-29 17:40 -3.79762 -73.36900 36891 ft 480 kts 117°
2026-04-29 17:41 -3.83719 -73.31737 36894 ft 484 kts 135°
2026-04-29 17:41 -3.89121 -73.27984 36898 ft 486 kts 154°
2026-04-29 17:42 -3.95336 -73.25510 36893 ft 487 kts 159°
2026-04-29 17:42 -4.01640 -73.23159 36888 ft 487 kts 159°
2026-04-29 17:43 -4.07923 -73.20778 36885 ft 487 kts 158°
2026-04-29 17:43 -4.14213 -73.18372 36879 ft 488 kts 158°
2026-04-29 17:44 -4.20553 -73.15936 36881 ft 487 kts 158°
2026-04-29 17:44 -4.26841 -73.13519 36879 ft 487 kts 158°
2026-04-29 17:45 -4.33192 -73.11076 36877 ft 487 kts 158°
2026-04-29 17:45 -4.39489 -73.08652 36875 ft 486 kts 158°
2026-04-29 17:46 -4.45759 -73.06239 36877 ft 487 kts 158°
2026-04-29 17:46 -4.52067 -73.03810 36872 ft 487 kts 158°
2026-04-29 17:47 -4.58386 -73.01376 36875 ft 488 kts 158°
2026-04-29 17:47 -4.64682 -72.98951 36874 ft 487 kts 158°
2026-04-29 17:48 -4.70979 -72.96526 36874 ft 487 kts 158°
2026-04-29 17:48 -4.77240 -72.94114 36871 ft 486 kts 158°
2026-04-29 17:49 -4.83515 -72.91695 36873 ft 486 kts 158°
2026-04-29 17:49 -4.89809 -72.89269 36872 ft 485 kts 158°
2026-04-29 17:50 -4.96112 -72.86836 36873 ft 486 kts 158°
2026-04-29 17:50 -5.02398 -72.84410 36869 ft 487 kts 158°
2026-04-29 17:51 -5.08688 -72.81985 36874 ft 486 kts 158°
2026-04-29 17:51 -5.14954 -72.79550 36871 ft 485 kts 158°
2026-04-29 17:52 -5.21248 -72.77098 36875 ft 485 kts 158°
2026-04-29 17:52 -5.27529 -72.74649 36875 ft 486 kts 158°
2026-04-29 17:53 -5.33826 -72.72192 36882 ft 486 kts 158°
2026-04-29 17:53 -5.40163 -72.69720 37069 ft 489 kts 158°
2026-04-29 17:53 -5.43329 -72.68485 37406 ft 487 kts 158°
2026-04-29 17:54 -5.46444 -72.67270 37717 ft 485 kts 158°
2026-04-29 17:54 -5.49584 -72.66045 37972 ft 485 kts 158°
2026-04-29 17:54 -5.52755 -72.64809 38204 ft 485 kts 158°
2026-04-29 17:54 -5.55856 -72.63599 38420 ft 485 kts 158°
2026-04-29 17:55 -5.59014 -72.62368 38623 ft 485 kts 158°
2026-04-29 17:55 -5.62171 -72.61136 38851 ft 485 kts 158°
2026-04-29 17:55 -5.65267 -72.59927 38881 ft 485 kts 158°
2026-04-29 17:56 -5.71556 -72.57471 38878 ft 485 kts 158°
2026-04-29 17:56 -5.77807 -72.55030 38874 ft 486 kts 158°
2026-04-29 17:57 -5.84038 -72.52594 38872 ft 486 kts 158°
2026-04-29 17:57 -5.90314 -72.50141 38879 ft 486 kts 158°
2026-04-29 17:58 -5.96551 -72.47705 38885 ft 486 kts 158°
2026-04-29 17:58 -6.02797 -72.45264 38884 ft 485 kts 158°
2026-04-29 17:59 -6.09006 -72.42838 38882 ft 485 kts 158°
2026-04-29 17:59 -6.15245 -72.40399 38878 ft 486 kts 158°
2026-04-29 18:00 -6.21548 -72.37933 38875 ft 486 kts 158°
2026-04-29 18:00 -6.27778 -72.35497 38872 ft 486 kts 158°
2026-04-29 18:01 -6.34062 -72.33038 38875 ft 486 kts 158°
2026-04-29 18:01 -6.40319 -72.30589 38876 ft 485 kts 158°
2026-04-29 18:02 -6.46608 -72.28128 38873 ft 486 kts 158°
2026-04-29 18:02 -6.52871 -72.25675 38876 ft 486 kts 158°
2026-04-29 18:03 -6.59182 -72.23204 38886 ft 485 kts 158°
2026-04-29 18:03 -6.65419 -72.20760 38899 ft 485 kts 158°
2026-04-29 18:04 -6.71682 -72.18306 38901 ft 485 kts 158°
2026-04-29 18:04 -6.77972 -72.15840 38902 ft 485 kts 158°
2026-04-29 18:05 -6.84194 -72.13401 38901 ft 486 kts 158°
2026-04-29 18:05 -6.90410 -72.10963 38904 ft 485 kts 158°
2026-04-29 18:06 -6.96656 -72.08511 38903 ft 485 kts 158°
2026-04-29 18:06 -7.02820 -72.06092 38905 ft 485 kts 159°
2026-04-29 18:07 -7.09044 -72.03648 38896 ft 486 kts 158°
2026-04-29 18:07 -7.15224 -72.01221 38886 ft 487 kts 158°
2026-04-29 18:08 -7.21416 -71.98791 38884 ft 487 kts 159°
2026-04-29 18:08 -7.27572 -71.96384 38884 ft 487 kts 159°
2026-04-29 18:09 -7.33744 -71.93967 38883 ft 486 kts 159°
2026-04-29 18:09 -7.39898 -71.91556 38879 ft 486 kts 159°
2026-04-29 18:10 -7.46066 -71.89139 38880 ft 487 kts 159°
2026-04-29 18:10 -7.52264 -71.86708 38881 ft 488 kts 159°
2026-04-29 18:11 -7.58467 -71.84276 38885 ft 488 kts 159°
2026-04-29 18:11 -7.64702 -71.81828 38882 ft 488 kts 159°
2026-04-29 18:12 -7.70931 -71.79385 38879 ft 487 kts 159°
2026-04-29 18:12 -7.77165 -71.76937 38879 ft 486 kts 159°
2026-04-29 18:13 -7.83376 -71.74497 38883 ft 487 kts 159°
2026-04-29 18:13 -7.89587 -71.72056 38882 ft 488 kts 159°
2026-04-29 18:14 -7.95872 -71.69585 38877 ft 489 kts 159°
2026-04-29 18:14 -8.02124 -71.67127 38883 ft 487 kts 159°
2026-04-29 18:15 -8.08405 -71.64658 38881 ft 487 kts 159°
2026-04-29 18:15 -8.14593 -71.62224 38880 ft 487 kts 159°
2026-04-29 18:16 -8.20855 -71.59759 38883 ft 487 kts 159°
2026-04-29 18:16 -8.27039 -71.57325 38885 ft 487 kts 159°
2026-04-29 18:17 -8.33222 -71.54889 38885 ft 487 kts 159°
2026-04-29 18:17 -8.39428 -71.52442 38886 ft 487 kts 159°
2026-04-29 18:18 -8.45597 -71.50010 38884 ft 487 kts 159°
2026-04-29 18:18 -8.51740 -71.47588 38887 ft 487 kts 159°
2026-04-29 18:19 -8.57904 -71.45170 38889 ft 486 kts 159°
2026-04-29 18:19 -8.64074 -71.42776 38892 ft 487 kts 159°
2026-04-29 18:20 -8.70242 -71.40382 38889 ft 485 kts 159°
2026-04-29 18:20 -8.76389 -71.37991 38887 ft 484 kts 159°
2026-04-29 18:21 -8.82525 -71.35603 38885 ft 484 kts 159°
2026-04-29 18:21 -8.88624 -71.33228 38882 ft 485 kts 159°
2026-04-29 18:22 -8.94783 -71.30828 38884 ft 484 kts 159°
2026-04-29 18:22 -9.00954 -71.28422 38883 ft 485 kts 159°
2026-04-29 18:23 -9.07144 -71.26003 38882 ft 484 kts 159°
2026-04-29 18:23 -9.13331 -71.23558 38888 ft 484 kts 159°
2026-04-29 18:24 -9.19480 -71.21124 38893 ft 484 kts 159°
2026-04-29 18:24 -9.25628 -71.18690 38895 ft 484 kts 159°
2026-04-29 18:25 -9.31818 -71.16239 38891 ft 485 kts 159°
2026-04-29 18:25 -9.37966 -71.13803 38890 ft 485 kts 159°
2026-04-29 18:26 -9.44126 -71.11362 38888 ft 485 kts 159°
2026-04-29 18:26 -9.50239 -71.08939 38887 ft 486 kts 159°
2026-04-29 18:27 -9.56392 -71.06499 38886 ft 486 kts 159°
2026-04-29 18:27 -9.62558 -71.04052 38888 ft 486 kts 159°
2026-04-29 18:28 -9.68676 -71.01623 38890 ft 485 kts 159°
2026-04-29 18:28 -9.74792 -70.99194 38889 ft 486 kts 159°
2026-04-29 18:29 -9.80950 -70.96748 38892 ft 486 kts 159°
2026-04-29 18:29 -9.87067 -70.94320 38892 ft 487 kts 159°
2026-04-29 18:30 -9.93201 -70.91882 38893 ft 488 kts 159°
2026-04-29 18:30 -9.99336 -70.89441 38894 ft 488 kts 159°
2026-04-29 18:31 -10.05491 -70.86990 38898 ft 487 kts 159°
2026-04-29 18:31 -10.11643 -70.84540 38898 ft 488 kts 159°
2026-04-29 18:32 -10.17834 -70.82074 38898 ft 488 kts 159°
2026-04-29 18:32 -10.27128 -70.78369 38898 ft 489 kts 159°
2026-04-29 18:33 -10.33367 -70.75880 38899 ft 490 kts 159°
2026-04-29 18:33 -10.39585 -70.73399 38900 ft 490 kts 159°
2026-04-29 18:34 -10.44845 -70.71299 38898 ft 489 kts 159°
2026-04-29 18:34 -10.52076 -70.68411 38900 ft 490 kts 158°
2026-04-29 18:35 -10.58280 -70.65932 38900 ft 489 kts 158°
2026-04-29 18:35 -10.64542 -70.63429 38902 ft 490 kts 158°
2026-04-29 18:36 -10.70786 -70.60932 38903 ft 490 kts 158°
2026-04-29 18:36 -10.76993 -70.58450 38903 ft 491 kts 158°
2026-04-29 18:37 -10.83187 -70.55971 38911 ft 491 kts 158°
2026-04-29 18:37 -10.89372 -70.53491 38915 ft 491 kts 158°
2026-04-29 18:38 -10.95628 -70.50985 38913 ft 490 kts 158°
2026-04-29 18:38 -11.01768 -70.48525 38912 ft 490 kts 158°
2026-04-29 18:39 -11.07990 -70.46031 38901 ft 490 kts 158°
2026-04-29 18:39 -11.14219 -70.43529 38903 ft 491 kts 158°
2026-04-29 18:40 -11.20449 -70.41029 38902 ft 492 kts 158°
2026-04-29 18:40 -11.26675 -70.38531 38902 ft 492 kts 158°
2026-04-29 18:41 -11.39228 -70.33486 38893 ft 492 kts 158°
2026-04-29 18:42 -11.45568 -70.30936 38888 ft 492 kts 158°
2026-04-29 18:42 -11.51966 -70.28362 38889 ft 493 kts 158°
2026-04-29 18:43 -11.58357 -70.25790 38889 ft 493 kts 158°
2026-04-29 18:43 -11.64696 -70.23237 38886 ft 493 kts 158°
2026-04-29 18:44 -11.71070 -70.20669 38886 ft 494 kts 158°
2026-04-29 18:44 -11.77480 -70.18085 38885 ft 493 kts 158°
2026-04-29 18:45 -11.83828 -70.15525 38882 ft 493 kts 158°
2026-04-29 18:45 -11.90187 -70.12959 38882 ft 495 kts 158°
2026-04-29 18:46 -11.96523 -70.10403 38878 ft 495 kts 158°
2026-04-29 18:46 -12.02784 -70.07871 38884 ft 495 kts 158°
2026-04-29 18:47 -12.09152 -70.05296 38891 ft 495 kts 158°
2026-04-29 18:47 -12.15465 -70.02744 38892 ft 496 kts 158°
2026-04-29 18:48 -12.21738 -70.00208 38890 ft 495 kts 158°
2026-04-29 18:48 -12.27974 -69.97683 38889 ft 496 kts 158°
2026-04-29 18:49 -12.34257 -69.95139 38890 ft 496 kts 158°
2026-04-29 18:49 -12.40503 -69.92609 38884 ft 496 kts 158°
2026-04-29 18:50 -12.46677 -69.90107 38884 ft 496 kts 158°
2026-04-29 18:50 -12.53044 -69.87522 38879 ft 497 kts 159°
2026-04-29 18:51 -12.59375 -69.84953 38879 ft 497 kts 159°
2026-04-29 18:51 -12.65736 -69.82372 38885 ft 497 kts 159°
2026-04-29 18:52 -12.72064 -69.79801 38887 ft 496 kts 159°
2026-04-29 18:52 -12.78409 -69.77222 38889 ft 497 kts 159°
2026-04-29 18:53 -12.84789 -69.74628 38894 ft 498 kts 159°
2026-04-29 18:53 -12.91124 -69.72051 38899 ft 499 kts 159°
2026-04-29 18:54 -12.97499 -69.69454 38901 ft 498 kts 159°
2026-04-29 18:54 -13.03838 -69.66872 38906 ft 498 kts 159°
2026-04-29 18:55 -13.10165 -69.64293 38927 ft 498 kts 159°
2026-04-29 18:55 -13.16488 -69.61715 38943 ft 497 kts 159°
2026-04-29 18:56 -13.28890 -69.56654 38974 ft 499 kts 159°
2026-04-29 18:57 -13.35228 -69.54064 38999 ft 499 kts 159°
2026-04-29 18:57 -13.41541 -69.51485 39017 ft 499 kts 159°
2026-04-29 18:58 -13.47912 -69.48880 38988 ft 498 kts 159°
2026-04-29 18:58 -13.54229 -69.46294 39015 ft 499 kts 159°
2026-04-29 18:59 -13.60650 -69.43665 39114 ft 500 kts 159°
2026-04-29 18:59 -13.67089 -69.41025 39242 ft 500 kts 160°
2026-04-29 19:00 -13.73552 -69.38377 39283 ft 500 kts 159°
2026-04-29 19:00 -13.80022 -69.35724 39329 ft 500 kts 160°
2026-04-29 19:01 -13.86475 -69.33076 39327 ft 500 kts 159°
2026-04-29 19:01 -13.92945 -69.30418 39282 ft 501 kts 159°
2026-04-29 19:02 -13.98359 -69.28191 39316 ft 500 kts 159°
2026-04-29 19:02 -14.05886 -69.25095 39376 ft 500 kts 159°
2026-04-29 19:03 -14.12382 -69.22424 39346 ft 501 kts 159°
2026-04-29 19:03 -14.18841 -69.19766 39388 ft 502 kts 159°
2026-04-29 19:04 -14.25352 -69.17084 39404 ft 502 kts 159°
2026-04-29 19:04 -14.31866 -69.14396 39465 ft 503 kts 160°
2026-04-29 19:05 -14.38327 -69.11729 39525 ft 502 kts 159°
2026-04-29 19:05 -14.44829 -69.09042 39589 ft 502 kts 160°
2026-04-29 19:06 -14.51277 -69.06394 39577 ft 502 kts 160°
2026-04-29 19:07 -14.61070 -69.02371 39645 ft 502 kts 160°
2026-04-29 19:07 -14.67343 -68.99787 39652 ft 502 kts 160°
2026-04-29 19:08 -14.73696 -68.97172 39652 ft 502 kts 160°
2026-04-29 19:08 -14.80077 -68.94539 39722 ft 502 kts 160°
2026-04-29 19:09 -14.86460 -68.91908 39772 ft 502 kts 160°
2026-04-29 19:09 -14.92870 -68.89263 39831 ft 503 kts 160°
2026-04-29 19:10 -14.99311 -68.86604 39873 ft 503 kts 160°
2026-04-29 19:10 -15.05732 -68.83949 39862 ft 502 kts 160°
2026-04-29 19:11 -15.12137 -68.81301 39813 ft 504 kts 160°
2026-04-29 19:11 -15.18527 -68.78657 39787 ft 503 kts 160°
2026-04-29 19:12 -15.24889 -68.76022 39765 ft 503 kts 160°
2026-04-29 19:12 -15.31219 -68.73398 39727 ft 504 kts 160°
2026-04-29 19:13 -15.37588 -68.70758 39683 ft 504 kts 160°
2026-04-29 19:13 -15.43955 -68.68115 39633 ft 504 kts 160°
2026-04-29 19:14 -15.50356 -68.65458 39639 ft 504 kts 160°
2026-04-29 19:14 -15.56743 -68.62804 39642 ft 505 kts 160°
2026-04-29 19:15 -15.63119 -68.60155 39636 ft 505 kts 160°
2026-04-29 19:15 -15.69614 -68.57453 39664 ft 505 kts 160°
2026-04-29 19:16 -15.76146 -68.54733 39727 ft 505 kts 160°
2026-04-29 19:16 -15.82706 -68.51999 39757 ft 505 kts 160°
2026-04-29 19:17 -15.89199 -68.49293 39792 ft 506 kts 160°
2026-04-29 19:17 -15.95729 -68.46569 39806 ft 506 kts 160°
2026-04-29 19:18 -16.02300 -68.43825 39825 ft 508 kts 160°
2026-04-29 19:18 -16.08841 -68.41092 39817 ft 507 kts 160°
2026-04-29 19:19 -16.15356 -68.38368 39815 ft 506 kts 160°
2026-04-29 19:19 -16.21916 -68.35622 39785 ft 507 kts 160°
2026-04-29 19:20 -16.28437 -68.32890 39771 ft 507 kts 160°
2026-04-29 19:20 -16.34998 -68.30141 39728 ft 507 kts 160°
2026-04-29 19:21 -16.41548 -68.27395 39694 ft 507 kts 160°
2026-04-29 19:21 -16.48059 -68.24592 39670 ft 509 kts 158°
2026-04-29 19:22 -16.54360 -68.21147 39660 ft 512 kts 150°
2026-04-29 19:22 -16.60306 -68.17091 39659 ft 513 kts 147°
2026-04-29 19:23 -16.66266 -68.12893 39673 ft 514 kts 147°
2026-04-29 19:23 -16.72202 -68.08732 39711 ft 513 kts 147°
2026-04-29 19:24 -16.78110 -68.04603 39725 ft 513 kts 148°
2026-04-29 19:24 -16.84076 -68.00435 39766 ft 514 kts 147°
2026-04-29 19:25 -16.89990 -67.96303 39782 ft 514 kts 147°
2026-04-29 19:25 -16.95932 -67.92146 39800 ft 514 kts 148°
2026-04-29 19:26 -17.01912 -67.87959 39791 ft 515 kts 148°
2026-04-29 19:26 -17.07857 -67.83795 39797 ft 515 kts 148°
2026-04-29 19:27 -17.13785 -67.79637 39783 ft 515 kts 148°
2026-04-29 19:27 -17.19754 -67.75445 39796 ft 515 kts 148°
2026-04-29 19:28 -17.25699 -67.71268 39784 ft 515 kts 148°
2026-04-29 19:28 -17.31687 -67.67099 39776 ft 514 kts 148°
2026-04-29 19:29 -17.37663 -67.62994 39775 ft 514 kts 148°
2026-04-29 19:29 -17.43675 -67.58856 39785 ft 515 kts 148°
2026-04-29 19:30 -17.49625 -67.54750 39778 ft 515 kts 148°
2026-04-29 19:30 -17.55617 -67.50607 39781 ft 515 kts 148°
2026-04-29 19:31 -17.61585 -67.46477 39784 ft 514 kts 148°
2026-04-29 19:31 -17.67545 -67.42351 39788 ft 515 kts 148°
2026-04-29 19:32 -17.73527 -67.38206 39791 ft 515 kts 148°
2026-04-29 19:32 -17.79481 -67.34080 39758 ft 515 kts 148°
2026-04-29 19:33 -17.85462 -67.29927 39753 ft 515 kts 148°
2026-04-29 19:33 -17.91456 -67.25761 39710 ft 515 kts 148°
2026-04-29 19:34 -17.97437 -67.21605 39667 ft 515 kts 148°
2026-04-29 19:34 -18.03411 -67.17449 39641 ft 515 kts 148°
2026-04-29 19:35 -18.09394 -67.13282 39684 ft 516 kts 148°
2026-04-29 19:35 -18.15357 -67.09128 39694 ft 516 kts 148°
2026-04-29 19:36 -18.21344 -67.04950 39723 ft 516 kts 148°
2026-04-29 19:36 -18.27329 -67.00774 39770 ft 516 kts 148°
2026-04-29 19:37 -18.33307 -66.96597 39795 ft 515 kts 148°
2026-04-29 19:37 -18.39271 -66.92427 39817 ft 516 kts 148°
2026-04-29 19:38 -18.45213 -66.88267 39820 ft 516 kts 149°
2026-04-29 19:38 -18.51193 -66.84079 39823 ft 517 kts 148°
2026-04-29 19:39 -18.57194 -66.79873 39821 ft 517 kts 149°
2026-04-29 19:39 -18.63178 -66.75673 39829 ft 517 kts 149°
2026-04-29 19:40 -18.69148 -66.71481 39821 ft 516 kts 148°
2026-04-29 19:40 -18.75133 -66.67275 39816 ft 518 kts 148°
2026-04-29 19:41 -18.81171 -66.63026 39825 ft 519 kts 148°
2026-04-29 19:41 -18.87151 -66.58814 39847 ft 519 kts 149°
2026-04-29 19:42 -18.93161 -66.54580 39844 ft 518 kts 149°
2026-04-29 19:42 -18.99164 -66.50349 39855 ft 518 kts 148°
2026-04-29 19:43 -19.05153 -66.46121 39864 ft 519 kts 148°
2026-04-29 19:43 -19.11128 -66.41894 39868 ft 519 kts 149°
2026-04-29 19:44 -19.17139 -66.37643 39866 ft 520 kts 149°
2026-04-29 19:44 -19.23156 -66.33385 39862 ft 521 kts 148°
2026-04-29 19:45 -19.29192 -66.29107 39857 ft 521 kts 149°
2026-04-29 19:45 -19.35197 -66.24846 39859 ft 522 kts 148°
2026-04-29 19:46 -19.41217 -66.20572 39864 ft 521 kts 149°
2026-04-29 19:46 -19.47298 -66.16319 39860 ft 521 kts 149°
2026-04-29 19:47 -19.53358 -66.12089 39858 ft 522 kts 149°
2026-04-29 19:47 -19.59421 -66.07856 39855 ft 522 kts 149°
2026-04-29 19:48 -19.65474 -66.03622 39840 ft 522 kts 149°
2026-04-29 19:48 -19.71573 -65.99352 39832 ft 523 kts 149°
2026-04-29 19:49 -19.77613 -65.95121 39823 ft 523 kts 149°
2026-04-29 19:49 -19.83737 -65.90856 39819 ft 524 kts 149°
2026-04-29 19:50 -19.89791 -65.86627 39813 ft 524 kts 149°
2026-04-29 19:50 -19.95899 -65.82351 39813 ft 523 kts 150°
2026-04-29 19:51 -20.01992 -65.78085 39799 ft 523 kts 150°
2026-04-29 19:51 -20.08105 -65.73830 39788 ft 524 kts 150°
2026-04-29 19:52 -20.14209 -65.69604 39763 ft 525 kts 150°
2026-04-29 19:52 -20.20325 -65.65356 39740 ft 524 kts 150°
2026-04-29 19:53 -20.26461 -65.61090 39710 ft 526 kts 150°
2026-04-29 19:53 -20.32596 -65.56818 39699 ft 527 kts 150°
2026-04-29 19:54 -20.41779 -65.50414 39681 ft 526 kts 150°
2026-04-29 19:54 -20.47924 -65.46127 39681 ft 527 kts 150°
2026-04-29 19:55 -20.54073 -65.41829 39680 ft 527 kts 150°
2026-04-29 19:55 -20.60179 -65.37559 39654 ft 527 kts 150°
2026-04-29 19:56 -20.66332 -65.33253 39644 ft 527 kts 150°
2026-04-29 19:56 -20.72451 -65.28968 39628 ft 530 kts 150°
2026-04-29 19:57 -20.77600 -65.25353 39586 ft 529 kts 150°
2026-04-29 19:57 -20.84771 -65.20317 39582 ft 530 kts 150°
2026-04-29 19:58 -20.90949 -65.15978 39574 ft 531 kts 150°
2026-04-29 19:58 -20.97130 -65.11623 39527 ft 530 kts 150°
2026-04-29 19:59 -21.03288 -65.07288 39493 ft 532 kts 150°
2026-04-29 19:59 -21.09483 -65.02920 39510 ft 533 kts 150°
2026-04-29 20:00 -21.15685 -64.98553 39526 ft 532 kts 151°
2026-04-29 20:00 -21.21872 -64.94249 39535 ft 531 kts 151°
2026-04-29 20:01 -21.28073 -64.89925 39529 ft 533 kts 150°
2026-04-29 20:01 -21.34279 -64.85580 39458 ft 532 kts 151°
2026-04-29 20:02 -21.40474 -64.81245 39422 ft 532 kts 151°
2026-04-29 20:02 -21.45643 -64.77625 39318 ft 532 kts 150°
2026-04-29 20:03 -21.52880 -64.72541 39229 ft 532 kts 151°
2026-04-29 20:03 -21.59184 -64.68495 39206 ft 529 kts 155°
2026-04-29 20:04 -21.65600 -64.64618 39217 ft 531 kts 155°
2026-04-29 20:04 -21.72043 -64.60718 39242 ft 529 kts 155°
2026-04-29 20:05 -21.78451 -64.56821 39262 ft 531 kts 155°
2026-04-29 20:05 -21.84911 -64.52888 39251 ft 532 kts 155°
2026-04-29 20:06 -21.91334 -64.48962 39262 ft 533 kts 155°
2026-04-29 20:06 -21.97784 -64.45016 39245 ft 532 kts 155°
2026-04-29 20:07 -22.04209 -64.41084 39216 ft 532 kts 156°
2026-04-29 20:07 -22.10619 -64.37159 39170 ft 533 kts 155°
2026-04-29 20:08 -22.16022 -64.33845 39163 ft 532 kts 155°
2026-04-29 20:08 -22.23518 -64.29237 39114 ft 532 kts 155°
2026-04-29 20:09 -22.29938 -64.25291 39129 ft 531 kts 155°
2026-04-29 20:09 -22.36375 -64.21333 39065 ft 532 kts 155°
2026-04-29 20:10 -22.42780 -64.17387 39043 ft 530 kts 156°
2026-04-29 20:10 -22.49160 -64.13454 39005 ft 530 kts 156°
2026-04-29 20:11 -22.55572 -64.09497 38975 ft 531 kts 156°
2026-04-29 20:11 -22.62011 -64.05515 38963 ft 531 kts 156°
2026-04-29 20:12 -22.68428 -64.01547 38956 ft 531 kts 156°
2026-04-29 20:12 -22.74829 -63.97584 38946 ft 531 kts 156°
2026-04-29 20:13 -22.81243 -63.93604 38946 ft 530 kts 156°
2026-04-29 20:13 -22.87618 -63.89645 38941 ft 529 kts 156°
2026-04-29 20:14 -22.93989 -63.85690 38937 ft 528 kts 157°
2026-04-29 20:14 -23.00360 -63.81729 38935 ft 528 kts 157°
2026-04-29 20:15 -23.06745 -63.77751 38932 ft 526 kts 157°
2026-04-29 20:15 -23.13075 -63.73809 38929 ft 526 kts 157°
2026-04-29 20:16 -23.19441 -63.69834 38928 ft 526 kts 157°
2026-04-29 20:16 -23.25748 -63.65898 38927 ft 526 kts 157°
2026-04-29 20:17 -23.32129 -63.61907 38925 ft 527 kts 157°
2026-04-29 20:17 -23.38429 -63.57959 38924 ft 524 kts 157°
2026-04-29 20:18 -23.44754 -63.53996 38922 ft 525 kts 157°
2026-04-29 20:18 -23.51094 -63.50019 38923 ft 525 kts 157°
2026-04-29 20:19 -23.57441 -63.46030 38918 ft 526 kts 157°
2026-04-29 20:19 -23.63740 -63.42067 38924 ft 525 kts 157°
2026-04-29 20:20 -23.70054 -63.38093 38930 ft 524 kts 157°
2026-04-29 20:20 -23.76396 -63.34096 38918 ft 524 kts 157°
2026-04-29 20:21 -23.82674 -63.30134 38933 ft 524 kts 156°
2026-04-29 20:21 -23.88989 -63.26147 38940 ft 524 kts 156°
2026-04-29 20:22 -23.95305 -63.22151 38941 ft 524 kts 156°
2026-04-29 20:22 -24.01608 -63.18161 38942 ft 525 kts 156°
2026-04-29 20:23 -24.07927 -63.14151 38948 ft 524 kts 156°
2026-04-29 20:23 -24.14202 -63.10171 38940 ft 523 kts 156°
2026-04-29 20:24 -24.20510 -63.06162 38937 ft 523 kts 156°
2026-04-29 20:24 -24.26761 -63.02183 38933 ft 521 kts 156°
2026-04-29 20:25 -24.33049 -62.98175 38924 ft 519 kts 157°
2026-04-29 20:25 -24.39290 -62.94201 38928 ft 520 kts 156°
2026-04-29 20:26 -24.45533 -62.90218 38928 ft 520 kts 156°
2026-04-29 20:26 -24.51810 -62.86205 38930 ft 520 kts 156°
2026-04-29 20:27 -24.56995 -62.82884 38931 ft 518 kts 156°
2026-04-29 20:27 -24.64232 -62.78252 38929 ft 518 kts 156°
2026-04-29 20:28 -24.70467 -62.74256 38931 ft 517 kts 156°
2026-04-29 20:28 -24.76690 -62.70258 38929 ft 516 kts 156°
2026-04-29 20:29 -24.82882 -62.66278 38929 ft 517 kts 156°
2026-04-29 20:29 -24.89077 -62.62293 38938 ft 517 kts 156°
2026-04-29 20:30 -24.95306 -62.58277 38936 ft 516 kts 156°
2026-04-29 20:30 -25.01483 -62.54289 38933 ft 514 kts 156°
2026-04-29 20:31 -25.07673 -62.50296 38938 ft 515 kts 156°
2026-04-29 20:31 -25.13866 -62.46293 38943 ft 513 kts 156°
2026-04-29 20:32 -25.19993 -62.42326 38952 ft 513 kts 156°
2026-04-29 20:32 -25.26172 -62.38320 38948 ft 513 kts 156°
2026-04-29 20:33 -25.32321 -62.34330 38964 ft 512 kts 155°
2026-04-29 20:33 -25.38482 -62.30328 38968 ft 512 kts 155°
2026-04-29 20:34 -25.44606 -62.26344 38966 ft 509 kts 155°
2026-04-29 20:34 -25.50685 -62.22383 38969 ft 510 kts 155°
2026-04-29 20:35 -25.56812 -62.18390 38981 ft 510 kts 155°
2026-04-29 20:35 -25.62918 -62.14404 38974 ft 508 kts 154°
2026-04-29 20:36 -25.68988 -62.10435 38974 ft 507 kts 155°
2026-04-29 20:36 -25.75091 -62.06442 38973 ft 507 kts 154°
2026-04-29 20:37 -25.81140 -62.02480 38971 ft 506 kts 154°
2026-04-29 20:37 -25.87240 -61.98481 38985 ft 507 kts 154°
2026-04-29 20:38 -25.93282 -61.94511 38974 ft 505 kts 154°
2026-04-29 20:38 -25.99369 -61.90506 38980 ft 504 kts 154°
2026-04-29 20:39 -26.05371 -61.86557 38994 ft 502 kts 154°
2026-04-29 20:39 -26.11385 -61.82590 38963 ft 502 kts 154°
2026-04-29 20:40 -26.17397 -61.78623 38983 ft 501 kts 154°
2026-04-29 20:40 -26.23394 -61.74662 38985 ft 501 kts 154°
2026-04-29 20:41 -26.29391 -61.70692 39002 ft 500 kts 154°
2026-04-29 20:41 -26.35339 -61.66752 38978 ft 498 kts 154°
2026-04-29 20:42 -26.41290 -61.62807 38994 ft 498 kts 154°
2026-04-29 20:42 -26.47245 -61.58855 38987 ft 496 kts 154°
2026-04-29 20:43 -26.53171 -61.54915 39001 ft 496 kts 154°
2026-04-29 20:43 -26.59091 -61.50976 38976 ft 494 kts 154°
2026-04-29 20:44 -26.64981 -61.47051 38986 ft 494 kts 154°
2026-04-29 20:44 -26.70883 -61.43113 38986 ft 493 kts 154°
2026-04-29 20:45 -26.76780 -61.39171 38989 ft 492 kts 154°
2026-04-29 20:45 -26.82634 -61.35255 38976 ft 490 kts 154°
2026-04-29 20:46 -26.88487 -61.31337 38995 ft 490 kts 153°
2026-04-29 20:46 -26.94366 -61.27397 39002 ft 490 kts 153°
2026-04-29 20:47 -27.00196 -61.23482 39013 ft 489 kts 153°
2026-04-29 20:47 -27.06056 -61.19543 38985 ft 490 kts 153°
2026-04-29 20:48 -27.11886 -61.15615 38981 ft 489 kts 153°
2026-04-29 20:48 -27.17715 -61.11688 38983 ft 489 kts 153°
2026-04-29 20:49 -27.23543 -61.07753 38978 ft 490 kts 153°
2026-04-29 20:49 -27.29389 -61.03797 38985 ft 490 kts 153°
2026-04-29 20:50 -27.35196 -60.99777 38984 ft 490 kts 153°
2026-04-29 20:50 -27.41002 -60.95736 38981 ft 491 kts 153°
2026-04-29 20:51 -27.46827 -60.91685 38988 ft 491 kts 153°
2026-04-29 20:51 -27.52634 -60.87640 38984 ft 491 kts 153°
2026-04-29 20:52 -27.58453 -60.83584 38987 ft 492 kts 153°
2026-04-29 20:52 -27.64317 -60.79492 38988 ft 492 kts 154°
2026-04-29 20:53 -27.70160 -60.75412 38989 ft 494 kts 154°
2026-04-29 20:53 -27.76009 -60.71320 38990 ft 493 kts 153°
2026-04-29 20:54 -27.84812 -60.65151 38994 ft 494 kts 154°
2026-04-29 20:55 -27.90677 -60.61031 38997 ft 494 kts 154°
2026-04-29 20:55 -27.96555 -60.56904 38996 ft 495 kts 154°
2026-04-29 20:56 -28.02410 -60.52782 38997 ft 494 kts 154°
2026-04-29 20:56 -28.08244 -60.48673 38996 ft 494 kts 154°
2026-04-29 20:57 -28.14095 -60.44546 38997 ft 494 kts 154°
2026-04-29 20:57 -28.19958 -60.40404 38994 ft 494 kts 154°
2026-04-29 20:58 -28.25771 -60.36288 38997 ft 493 kts 155°
2026-04-29 20:58 -28.31601 -60.32159 38991 ft 493 kts 154°
2026-04-29 20:59 -28.37402 -60.28047 38992 ft 493 kts 154°
2026-04-29 20:59 -28.43238 -60.23901 38987 ft 492 kts 154°
2026-04-29 21:00 -28.49003 -60.19805 38988 ft 492 kts 154°
2026-04-29 21:00 -28.54810 -60.15673 38986 ft 493 kts 154°
2026-04-29 21:01 -28.60616 -60.11533 38983 ft 493 kts 155°
2026-04-29 21:01 -28.66409 -60.07394 38985 ft 492 kts 154°
2026-04-29 21:02 -28.72223 -60.03238 38979 ft 491 kts 155°
2026-04-29 21:02 -28.77968 -59.99126 38978 ft 491 kts 155°
2026-04-29 21:03 -28.83749 -59.94981 38980 ft 491 kts 155°
2026-04-29 21:03 -28.89529 -59.90832 38993 ft 491 kts 155°
2026-04-29 21:04 -28.95319 -59.86674 38992 ft 492 kts 155°
2026-04-29 21:04 -29.01123 -59.82496 38995 ft 491 kts 155°
2026-04-29 21:05 -29.06879 -59.78347 38987 ft 491 kts 155°
2026-04-29 21:05 -29.12656 -59.74177 38995 ft 491 kts 155°
2026-04-29 21:06 -29.18456 -59.69985 38994 ft 492 kts 155°
2026-04-29 21:06 -29.24324 -59.66145 38987 ft 485 kts 160°
2026-04-29 21:07 -29.30292 -59.62593 38987 ft 486 kts 161°
2026-04-29 21:07 -29.36307 -59.59024 38986 ft 485 kts 160°
2026-04-29 21:08 -29.42261 -59.55471 38995 ft 486 kts 161°
2026-04-29 21:08 -29.48280 -59.51869 38999 ft 486 kts 160°
2026-04-29 21:09 -29.54275 -59.48273 38987 ft 486 kts 161°
2026-04-29 21:09 -29.60266 -59.44676 39000 ft 487 kts 161°
2026-04-29 21:10 -29.66256 -59.41073 38993 ft 487 kts 161°
2026-04-29 21:10 -29.72247 -59.37466 39005 ft 487 kts 161°
2026-04-29 21:11 -29.78265 -59.33837 38992 ft 487 kts 160°
2026-04-29 21:11 -29.84278 -59.30209 38999 ft 489 kts 160°
2026-04-29 21:12 -29.90284 -59.26578 39008 ft 488 kts 160°
2026-04-29 21:12 -29.96289 -59.22940 39001 ft 490 kts 161°
2026-04-29 21:13 -30.02292 -59.19300 39011 ft 490 kts 161°
2026-04-29 21:13 -30.08347 -59.15624 39009 ft 489 kts 161°
2026-04-29 21:14 -30.14358 -59.11971 39011 ft 489 kts 161°
2026-04-29 21:14 -30.20389 -59.08297 39009 ft 487 kts 161°
2026-04-29 21:15 -30.26391 -59.04639 39011 ft 486 kts 161°
2026-04-29 21:15 -30.32335 -59.01009 39011 ft 485 kts 161°
2026-04-29 21:16 -30.38293 -58.97368 39012 ft 485 kts 161°
2026-04-29 21:16 -30.44289 -58.93699 39010 ft 485 kts 161°
2026-04-29 21:17 -30.50245 -58.90048 39018 ft 486 kts 161°
2026-04-29 21:17 -30.56247 -58.86363 39015 ft 487 kts 161°
2026-04-29 21:18 -30.62212 -58.82693 39011 ft 485 kts 161°
2026-04-29 21:18 -30.68140 -58.79046 39021 ft 485 kts 161°
2026-04-29 21:19 -30.74115 -58.75363 39014 ft 485 kts 161°
2026-04-29 21:19 -30.80072 -58.71684 39010 ft 485 kts 161°
2026-04-29 21:20 -30.86011 -58.68011 39013 ft 484 kts 161°
2026-04-29 21:20 -30.91977 -58.64317 39012 ft 483 kts 161°
2026-04-29 21:21 -30.97923 -58.60632 39016 ft 484 kts 161°
2026-04-29 21:21 -31.03853 -58.56952 39020 ft 484 kts 161°
2026-04-29 21:22 -31.09808 -58.53247 39018 ft 483 kts 161°
2026-04-29 21:22 -31.15761 -58.49541 39017 ft 484 kts 161°
2026-04-29 21:23 -31.21691 -58.45844 39013 ft 483 kts 161°
2026-04-29 21:23 -31.27617 -58.42141 39007 ft 481 kts 161°
2026-04-29 21:24 -31.33541 -58.38438 39001 ft 484 kts 161°
2026-04-29 21:24 -31.39465 -58.34729 38997 ft 482 kts 161°
2026-04-29 21:25 -31.45366 -58.31030 38993 ft 484 kts 161°
2026-04-29 21:25 -31.51308 -58.27299 38996 ft 486 kts 161°
2026-04-29 21:26 -31.57263 -58.23552 38996 ft 483 kts 160°
2026-04-29 21:26 -31.63202 -58.19813 38991 ft 484 kts 160°
2026-04-29 21:27 -31.69140 -58.16065 38991 ft 484 kts 161°
2026-04-29 21:27 -31.75040 -58.12337 38993 ft 485 kts 161°
2026-04-29 21:28 -31.80964 -58.08590 38996 ft 484 kts 161°
2026-04-29 21:28 -31.86896 -58.04831 38992 ft 486 kts 161°
2026-04-29 21:29 -31.92836 -58.01064 38991 ft 484 kts 161°
2026-04-29 21:29 -31.98746 -57.97306 38989 ft 483 kts 160°
2026-04-29 21:30 -32.04662 -57.93543 38989 ft 485 kts 160°
2026-04-29 21:30 -32.10607 -57.89752 38983 ft 483 kts 160°
2026-04-29 21:31 -32.16503 -57.85990 38984 ft 483 kts 160°
2026-04-29 21:31 -32.22393 -57.82225 38981 ft 483 kts 160°
2026-04-29 21:32 -32.28306 -57.78441 38980 ft 485 kts 160°
2026-04-29 21:32 -32.34232 -57.74640 38980 ft 484 kts 160°
2026-04-29 21:33 -32.40169 -57.70828 38987 ft 484 kts 160°
2026-04-29 21:33 -32.46104 -57.67009 38974 ft 484 kts 161°
2026-04-29 21:34 -32.52056 -57.63176 38984 ft 484 kts 160°
2026-04-29 21:34 -32.57934 -57.59385 38455 ft 486 kts 161°
2026-04-29 21:34 -32.60910 -57.57468 37767 ft 488 kts 160°
2026-04-29 21:35 -32.63893 -57.55541 37193 ft 487 kts 160°
2026-04-29 21:35 -32.66856 -57.53622 36755 ft 482 kts 160°
2026-04-29 21:35 -32.69752 -57.51743 36314 ft 478 kts 160°
2026-04-29 21:35 -32.72693 -57.49835 35831 ft 475 kts 160°
2026-04-29 21:36 -32.75571 -57.47968 35384 ft 471 kts 160°
2026-04-29 21:36 -32.78425 -57.46114 34952 ft 466 kts 160°
2026-04-29 21:36 -32.81283 -57.44259 34530 ft 462 kts 160°
2026-04-29 21:36 -32.84071 -57.42446 34101 ft 458 kts 160°
2026-04-29 21:37 -32.86888 -57.40618 33670 ft 458 kts 160°
2026-04-29 21:37 -32.89688 -57.38802 33245 ft 460 kts 160°
2026-04-29 21:37 -32.92500 -57.36974 32681 ft 462 kts 160°
2026-04-29 21:37 -32.95325 -57.35137 32067 ft 464 kts 160°
2026-04-29 21:38 -32.98190 -57.33268 31433 ft 465 kts 159°
2026-04-29 21:38 -33.01037 -57.31412 30711 ft 469 kts 159°
2026-04-29 21:38 -33.03904 -57.29544 29973 ft 472 kts 159°
2026-04-29 21:38 -33.06748 -57.27684 29318 ft 472 kts 159°
2026-04-29 21:39 -33.09637 -57.25797 28596 ft 473 kts 159°
2026-04-29 21:39 -33.12526 -57.23904 28139 ft 469 kts 159°
2026-04-29 21:39 -33.15361 -57.22044 27670 ft 465 kts 159°
2026-04-29 21:39 -33.18164 -57.20202 27183 ft 462 kts 159°
2026-04-29 21:40 -33.20983 -57.18351 26712 ft 458 kts 159°
2026-04-29 21:40 -33.23746 -57.16536 26263 ft 455 kts 159°
2026-04-29 21:40 -33.26509 -57.14720 25794 ft 451 kts 159°
2026-04-29 21:40 -33.29257 -57.12913 25370 ft 447 kts 158°
2026-04-29 21:41 -33.31932 -57.11151 24960 ft 443 kts 158°
2026-04-29 21:41 -33.34649 -57.09363 24517 ft 440 kts 159°
2026-04-29 21:41 -33.37302 -57.07614 24110 ft 437 kts 159°
2026-04-29 21:41 -33.39943 -57.05873 23699 ft 433 kts 158°
2026-04-29 21:42 -33.42591 -57.04128 23249 ft 431 kts 159°
2026-04-29 21:42 -33.45214 -57.02397 22797 ft 429 kts 158°
2026-04-29 21:42 -33.47794 -57.00694 22401 ft 426 kts 158°
2026-04-29 21:42 -33.50397 -56.98971 22056 ft 421 kts 158°
2026-04-29 21:43 -33.52939 -56.97288 21683 ft 417 kts 159°
2026-04-29 21:43 -33.55475 -56.95610 21293 ft 414 kts 158°
2026-04-29 21:43 -33.57976 -56.93953 20924 ft 411 kts 158°
2026-04-29 21:43 -33.60480 -56.92294 20518 ft 408 kts 158°
2026-04-29 21:44 -33.62952 -56.90656 20112 ft 406 kts 158°
2026-04-29 21:44 -33.65400 -56.89034 19737 ft 404 kts 158°
2026-04-29 21:44 -33.67846 -56.87408 19381 ft 400 kts 158°
2026-04-29 21:44 -33.70277 -56.85791 19029 ft 397 kts 158°
2026-04-29 21:45 -33.72687 -56.84188 18649 ft 394 kts 158°
2026-04-29 21:45 -33.75057 -56.82611 18278 ft 392 kts 158°
2026-04-29 21:45 -33.77436 -56.81027 17899 ft 390 kts 158°
2026-04-29 21:45 -33.79829 -56.79432 17508 ft 388 kts 158°
2026-04-29 21:46 -33.82162 -56.77878 17145 ft 385 kts 158°
2026-04-29 21:46 -33.84523 -56.76303 16759 ft 384 kts 158°
2026-04-29 21:46 -33.86826 -56.74767 16367 ft 382 kts 157°
2026-04-29 21:46 -33.89176 -56.73197 15958 ft 381 kts 157°
2026-04-29 21:47 -33.91461 -56.71669 15580 ft 379 kts 157°
2026-04-29 21:47 -33.93762 -56.70131 15212 ft 377 kts 157°
2026-04-29 21:47 -33.96043 -56.68604 14831 ft 376 kts 157°
2026-04-29 21:47 -33.98325 -56.67075 14455 ft 374 kts 157°
2026-04-29 21:48 -34.00608 -56.65546 14057 ft 372 kts 157°
2026-04-29 21:48 -34.02870 -56.64030 13689 ft 370 kts 156°
2026-04-29 21:48 -34.05092 -56.62538 13328 ft 368 kts 156°
2026-04-29 21:48 -34.07337 -56.61030 12956 ft 366 kts 156°
2026-04-29 21:49 -34.09577 -56.59526 12577 ft 365 kts 156°
2026-04-29 21:49 -34.11776 -56.58047 12211 ft 363 kts 156°
2026-04-29 21:49 -34.13968 -56.56574 11841 ft 361 kts 156°
2026-04-29 21:49 -34.16150 -56.55103 11473 ft 359 kts 156°
2026-04-29 21:50 -34.18321 -56.53641 11112 ft 357 kts 156°
2026-04-29 21:50 -34.20500 -56.52171 10745 ft 355 kts 156°
2026-04-29 21:50 -34.22653 -56.50718 10366 ft 352 kts 156°
2026-04-29 21:50 -34.24738 -56.49309 10094 ft 339 kts 156°
2026-04-29 21:51 -34.26756 -56.47940 10038 ft 319 kts 156°
2026-04-29 21:51 -34.28634 -56.46664 10019 ft 302 kts 157°
2026-04-29 21:51 -34.32146 -56.44292 10005 ft 284 kts 158°
2026-04-29 21:52 -34.33866 -56.43133 9955 ft 281 kts 158°
2026-04-29 21:52 -34.35576 -56.41982 9686 ft 283 kts 158°
2026-04-29 21:52 -34.37312 -56.40813 9395 ft 283 kts 157°
2026-04-29 21:52 -34.39031 -56.39652 9131 ft 283 kts 157°
2026-04-29 21:53 -34.40733 -56.38499 8877 ft 282 kts 156°
2026-04-29 21:53 -34.42337 -56.37069 8600 ft 289 kts 140°
2026-04-29 21:53 -34.43577 -56.35156 8336 ft 294 kts 127°
2026-04-29 21:53 -34.44646 -56.33036 8076 ft 294 kts 124°
2026-04-29 21:54 -34.45668 -56.30918 7804 ft 293 kts 124°
2026-04-29 21:54 -34.46698 -56.28787 7558 ft 292 kts 124°
2026-04-29 21:54 -34.47729 -56.26678 7304 ft 290 kts 124°
2026-04-29 21:54 -34.48769 -56.24567 7042 ft 289 kts 125°
2026-04-29 21:55 -34.49799 -56.22487 6797 ft 288 kts 125°
2026-04-29 21:55 -34.50835 -56.20404 6542 ft 287 kts 125°
2026-04-29 21:55 -34.51858 -56.18349 6287 ft 286 kts 125°
2026-04-29 21:55 -34.52884 -56.16285 6032 ft 285 kts 125°
2026-04-29 21:56 -34.53904 -56.14233 5797 ft 283 kts 125°
2026-04-29 21:56 -34.54914 -56.12202 5560 ft 282 kts 125°
2026-04-29 21:56 -34.55918 -56.10186 5312 ft 281 kts 125°
2026-04-29 21:56 -34.56930 -56.08146 5068 ft 280 kts 125°
2026-04-29 21:57 -34.57926 -56.06137 4832 ft 278 kts 125°
2026-04-29 21:57 -34.58926 -56.04119 4593 ft 277 kts 125°
2026-04-29 21:57 -34.59915 -56.02124 4352 ft 277 kts 125°
2026-04-29 21:57 -34.60907 -56.00119 4106 ft 276 kts 125°
2026-04-29 21:58 -34.61896 -55.98121 3869 ft 275 kts 125°
2026-04-29 21:58 -34.62872 -55.96149 3630 ft 274 kts 125°
2026-04-29 21:58 -34.63856 -55.94160 3390 ft 274 kts 125°
2026-04-29 21:58 -34.64935 -55.92295 3141 ft 269 kts 137°
2026-04-29 21:59 -34.66318 -55.90802 3017 ft 259 kts 147°
2026-04-29 21:59 -34.67736 -55.89531 3009 ft 249 kts 149°
2026-04-29 21:59 -34.69119 -55.88327 3004 ft 239 kts 149°
2026-04-29 21:59 -34.70432 -55.87172 2999 ft 228 kts 149°
2026-04-29 22:00 -34.71777 -55.86331 2975 ft 206 kts 178°
2026-04-29 22:00 -34.73084 -55.86534 2984 ft 181 kts 211°
2026-04-29 22:00 -34.74089 -55.87396 2855 ft 174 kts 227°
2026-04-29 22:00 -34.74897 -55.88474 2643 ft 174 kts 233°
2026-04-29 22:01 -34.75648 -55.89621 2424 ft 170 kts 234°
2026-04-29 22:01 -34.76340 -55.90742 2190 ft 163 kts 236°
2026-04-29 22:01 -34.77004 -55.91838 1977 ft 156 kts 236°
2026-04-29 22:01 -34.77629 -55.92871 1763 ft 148 kts 236°
2026-04-29 22:02 -34.78220 -55.93846 1572 ft 141 kts 236°
2026-04-29 22:02 -34.78794 -55.94790 1394 ft 137 kts 237°
2026-04-29 22:02 -34.79362 -55.95728 1225 ft 137 kts 236°
2026-04-29 22:02 -34.79929 -55.96660 1054 ft 137 kts 236°
2026-04-29 22:03 -34.80499 -55.97595 871 ft 137 kts 236°
2026-04-29 22:03 -34.81067 -55.98529 690 ft 136 kts 236°
2026-04-29 22:03 -34.81629 -55.99452 507 ft 136 kts 236°
2026-04-29 22:03 -34.82190 -56.00373 329 ft 136 kts 236°
2026-04-29 22:04 -34.82758 -56.01311 152 ft 136 kts 235°
2026-04-29 22:04 -34.83311 -56.02217 87 ft 128 kts 235°
2026-04-29 22:04 -34.83762 -56.02960 75 ft 84 kts 234°
2026-04-29 22:04 -34.84003 -56.03354 66 ft 36 kts 233°
2026-04-29 22:05 -34.84146 -56.03592 59 ft 25 kts 233°
2026-04-29 22:05 -34.84243 -56.03643 56 ft 8 kts 134°
2026-04-29 22:05 -34.84209 -56.03521 59 ft 8 kts 64°
2026-04-29 22:06 -34.84179 -56.03448 60 ft 11 kts 62°
2026-04-29 22:06 -34.84129 -56.03342 62 ft 16 kts 59°
2026-04-29 22:06 -34.84074 -56.03224 65 ft 15 kts 61°
2026-04-29 22:06 -34.84026 -56.03107 67 ft 15 kts 69°
2026-04-29 22:07 -34.84010 -56.02988 70 ft 13 kts 89°
2026-04-29 22:07 -34.84011 -56.02866 70 ft 14 kts 90°
2026-04-29 22:07 -34.83985 -56.02745 70 ft 15 kts 62°
2026-04-29 22:07 -34.83947 -56.02630 72 ft 14 kts 83°
2026-04-29 22:08 -34.83943 -56.02509 72 ft 14 kts 90°
2026-04-29 22:08 -34.83945 -56.02379 72 ft 15 kts 91°
2026-04-29 22:08 -34.83922 -56.02261 73 ft 13 kts 28°
2026-04-29 22:08 -34.83835 -56.02243 77 ft 11 kts
2026-04-29 22:09 -34.83768 -56.02207 79 ft 10 kts 43°
2026-04-29 22:09 -34.83715 -56.02129 81 ft 12 kts 53°
2026-04-29 22:09 -34.83666 -56.02046 83 ft 11 kts 53°
2026-04-29 22:09 -34.83615 -56.01964 84 ft 12 kts 53°
2026-04-29 22:10 -34.83564 -56.01881 86 ft 11 kts 53°
2026-04-29 22:10 -34.83519 -56.01807 89 ft 10 kts 53°
2026-04-29 22:10 -34.83482 -56.01734 90 ft 7 kts 83°
2026-04-29 22:10 -34.83513 -56.01687 89 ft 9 kts 138°
2026-04-29 22:11 -34.83543 -56.01659 88 ft 0 kts 143°
2026-04-29 22:11 -34.83541 -56.01659 88 ft 1 kts 143°
2026-04-29 22:11 -34.83542 -56.01659 88 ft 0 kts 143°